Location: *
(37.9500°N, 27.3666°E)
Time: 01:27:10
(UTC+00:00)

CZ-2C R/B - Visible Passes

Search period start: 25 May 2022 00:00
Search period end: 04 June 2022 00:00
Orbit: 784 x 870 km, 98.2° (Epoch: 24 May)

Date Brightness Start Highest point End Pass type
(mag) Time Alt. Az. Time Alt. Az. Time Alt. Az.
25 May 4.5 02:03:53 10° SE 02:08:29 34° ENE 02:13:10 10° N visible
26 May 5.2 01:45:58 10° ESE 01:49:59 23° ENE 01:54:02 10° NNE visible
27 May 5.6 01:28:27 10° E 01:31:31 16° ENE 01:34:36 10° NNE visible
28 May 6.0 01:12:03 10° ENE 01:13:07 11° ENE 01:14:10 10° NE visible
30 May 4.2 02:10:30 10° SE 02:15:18 40° ENE 02:20:13 10° N visible
31 May 4.9 01:52:26 10° SE 01:56:47 27° ENE 02:01:11 10° N visible
01 Jun 5.4 01:34:43 10° ESE 01:38:18 19° ENE 01:41:56 10° NNE visible
02 Jun 5.7 01:17:34 10° E 01:19:53 13° ENE 01:22:11 10° NE visible
